Location: Marcé
(47.5801°N, 0.3280°W)
Time: 15:19:45
(UTC+01:00)

SR - Pass Details

Date: 08 December 2021
Orbit: 582 x 872 km, 66.7° (Epoch: 22 January)

Event Time Altitude Azimuth Distance (km) Brightness Sun altitude
Rises 00:40:39 0° 240° (WSW) 2,934 - -65.0°
Reaches altitude 10° 00:43:11 10° 250° (WSW) 1,990 - -65.1°
Maximum altitude 00:47:11 32° 314° (NW) 1,042 - -65.1°
Drops below altitude 10° 00:51:03 10° 19° (NNE) 1,921 - -65.1°
Sets 00:53:27 0° 30° (NNE) 2,816 - -65.1°
